Вернуться в каталог

STARLINK-37608

АктивенСвязьSSO
NORAD 69037·PAYLOAD·🇺🇸 United States

Запущен May 6, 2026 с Vandenberg Space Force Base

Loading…

Ближайшие Пролёты (ближайшие 24 часа)

TLE

СвежийSource: CelesTrak SupGP

Эпоха: Sep 15, 2026, 03:34 UTC

1 69037C 26101N   26258.14909722 -.00022010  00000+0 -68254-3 0  2584
2 69037  97.2846 111.7529 0001665  93.8096 196.6369 15.33482077    13

Отслеживайте STARLINK-37608 в реальном времени с AllMySat

Download on the App Store